#timestamp,LO_Frequency,Hit,StdDev 
1568224815.6,286047006.7,N
1568224835.4,286047007.9,N
1568224855.2,286047010.4,N
1568224875.1,286047010.2,N
1568224876.0,286047010.2,N
1568224895.8,286047007.8,N
1568224915.6,286047010.3,N
1568224935.5,286047008.6,N
1568224955.3,286047010.1,N
1568224975.2,286047009.3,N
1568224995.9,286047008.1,N
1568225015.7,286047010.9,N
1568225035.6,286047009.4,N
1568225055.4,286047010.4,N
1568225075.2,286047006.1,N
1568225095.1,286047007.9,N
1568225096.0,286047007.9,Y
1568225115.8,286047002.6,P
1568225135.7,286047002.8,N
1568225155.5,286047001.2,N
1568225175.3,286046998.8,N
1568225195.2,286046999.1,N
1568225215.0,286046999.5,N
1568225215.9,286046999.5,N
1568225235.7,286046996.9,N
1568225255.6,286046998.4,N
1568225275.4,286047000.3,N
1568225295.3,286047000.3,N
1568225315.1,286047000.9,N
1568225316.0,286047000.9,N
1568225335.8,286046999.8,N
1568225355.7,286047004.4,N
1568225375.5,286047005.8,N
1568225395.3,286047005.4,N
1568225415.2,286047004.8,N
1568225435.0,286047007.4,N
1568225435.9,286047007.4,N
1568225455.8,286047009.1,N
1568225475.6,286047007.0,N
1568225495.4,286047006.6,N
1568225515.3,286047008.7,N
1568225535.1,286047007.7,N
1568225555.8,286047008.1,N
1568225575.7,286047007.7,N
1568225595.5,286047008.0,N
1568225615.4,286047009.1,N
1568225635.2,286047008.0,N
1568225655.0,286047009.0,N
1568225655.9,286047009.0,N
1568225675.8,286047008.2,N
1568225695.6,286047008.9,N
1568225715.5,286047010.8,N
1568225735.3,286047009.7,N
1568225755.1,286047013.2,Y
1568225775.9,286047006.3,P
1568225795.7,286047007.2,P
1568225815.5,286047007.3,P
1568225835.4,286047006.5,Y
1568225855.2,286047000.1,P
1568225875.1,286047001.9,N
1568225876.0,286047001.9,N
1568225895.8,286047004.4,N
1568225915.6,286047004.2,N
1568225935.5,286047004.1,N
1568225955.3,286047002.5,N
1568225975.1,286047001.0,N
1568225995.9,286046998.1,N
1568226015.7,286047000.7,N
1568226035.6,286046999.2,N
1568226055.4,286046997.1,N
1568226075.2,286046995.8,N
1568226095.1,286046996.3,N
1568226096.0,286046996.3,N
1568226115.8,286046991.7,N
1568226135.6,286046990.9,N
1568226155.5,286046991.4,N
1568226175.3,286046990.9,N
1568226195.2,286046990.3,N
1568226215.9,286046990.6,N
1568226235.7,286046991.7,N
1568226255.6,286046993.1,N
1568226275.4,286046987.1,N
1568226295.2,286046985.9,N
1568226315.1,286046986.1,N
1568226316.0,286046986.1,N
1568226335.8,286046986.2,N
1568226355.7,286046988.0,N
1568226375.5,286046985.0,N
1568226395.3,286046983.2,N
1568226415.2,286046980.5,Y
1568226435.0,286046987.9,P
1568226435.9,286046987.9,P
1568226455.8,286046988.1,P
1568226475.6,286046987.4,Y
1568226495.4,286046999.1,P
1568226515.3,286047000.6,N
1568226535.1,286047003.2,N
1568226555.8,286047005.2,N
1568226575.7,286047006.0,N
1568226595.5,286047006.5,N
1568226615.4,286047009.3,N
1568226635.2,286047011.9,N
1568226655.0,286047013.5,N
1568226655.9,286047013.5,N
1568226675.8,286047015.1,N
1568226695.6,286047015.1,N
1568226715.4,286047014.9,N
1568226735.3,286047013.8,N
1568226755.1,286047015.6,N
1568226775.9,286047014.2,N
1568226795.7,286047015.0,N
1568226815.5,286047015.6,N
1568226835.4,286047012.6,N
1568226855.2,286047013.6,N
1568226875.0,286047010.1,N
1568226875.9,286047010.1,N
1568226895.8,286047009.8,N
1568226915.6,286047009.9,N
1568226935.5,286047009.7,N
1568226955.3,286047011.9,N
1568226975.1,286047010.9,N
1568226995.9,286047014.0,N
1568227015.7,286047012.1,N
1568227035.5,286047011.9,N
1568227055.4,286047013.6,Y
1568227075.2,286046998.1,P
1568227095.1,286046996.6,N
1568227096.0,286046996.6,N
1568227115.8,286046994.9,N
1568227135.6,286046992.9,N
1568227155.5,286046993.2,N
1568227175.3,286046990.6,N
1568227195.1,286046991.3,N
1568227215.9,286046992.8,N
1568227235.7,286046994.5,N
1568227255.6,286046994.4,N
1568227275.4,286046995.7,N
1568227295.2,286046997.0,N
1568227315.1,286046998.3,N
1568227316.0,286046998.3,N
1568227335.8,286046998.6,N
1568227355.7,286046998.2,N
1568227375.5,286046998.7,N
1568227395.3,286047001.0,N
1568227415.2,286047002.6,N
1568227435.0,286047001.5,N
1568227435.9,286047001.5,N
1568227455.7,286047001.9,N
1568227475.6,286047002.2,N
1568227495.4,286047002.1,N
1568227515.3,286047002.4,N
1568227535.1,286047001.3,N
1568227536.0,286047001.3,N
1568227555.8,286047005.4,N
1568227575.7,286047004.6,N
1568227595.5,286047005.1,N
1568227615.3,286047004.6,N
1568227635.2,286047006.1,N
1568227655.0,286047010.2,N
1568227655.9,286047010.2,N
1568227675.8,286047010.7,N
1568227695.6,286047009.8,N
1568227715.4,286047011.7,N
1568227735.3,286047011.0,N
1568227755.1,286047013.3,N
1568227775.8,286047013.5,N
1568227795.7,286047011.2,N
1568227815.5,286047011.2,N
1568227835.4,286047013.5,N
1568227855.2,286047014.0,N
1568227875.0,286047011.2,N
1568227875.9,286047011.2,N
1568227895.8,286047012.8,N
1568227915.6,286047013.1,N
1568227935.4,286047013.1,N
1568227955.3,286047011.0,N
1568227975.1,286047012.8,N
1568227995.9,286047013.0,N
1568228015.7,286047014.1,Y
1568228035.5,286047005.2,P
1568228055.4,286047005.5,N
1568228075.2,286047011.9,P
1568228095.0,286047003.6,N
1568228096.0,286047003.6,N
1568228115.8,286047001.7,N
1568228135.6,286047002.7,N
1568228155.5,286046997.0,N
1568228175.3,286046994.9,N
1568228195.1,286046995.1,N
1568228215.9,286046993.7,N
1568228235.7,286046994.5,N
1568228255.5,286046994.7,N
1568228275.4,286046992.2,N
1568228295.2,286046992.9,N
1568228315.1,286046992.1,N
1568228316.0,286046992.1,N
1568228335.8,286046993.7,N
1568228355.6,286046996.3,N
1568228375.5,286046996.0,N
1568228395.3,286046993.5,N
